Regional Weather Roundup
Issued by NWS Boston, MA

Home | Current Version | Previous Version | Text Only | Print | Product List | Glossary On
Versions: 1 2 3 4 5 6 7 8 9 10 11 12 13 14 15 16 17 18 19 20 21 22 23 24 25 26 27 28 29 30 31 32 33 34 35 36 37 38 39 40 41 42 43 44 45 46 47 48 49 50
000
ASUS41 KBOX 300810
RWRBOX

REGIONAL WEATHER ROUNDUP
NATIONAL WEATHER SERVICE TAUNTON MA
400 AM EDT SAT APR 30 2016

NOTE:  "FAIR" INDICATES FEW OR NO CLOUDS BELOW 12,000 FEET WITH NO
SIGNIFICANT WEATHER AND/OR OBSTRUCTIONS TO VISIBILITY.  THE FOLLOWING
OBSERVATION LOCATIONS DO NOT REPORT PRESENT WEATHER...PROVINCETOWN...
SMITHFIELD...BLOCK ISLAND...KEENE...AND OXFORD.

MAZALL-300900-
EASTERN MASSACHUSETTS

CITY           SKY/WX    TMP DP  RH WIND       PRES   REMARKS
BOSTON         CLEAR     42  32  67 S7        30.18S
BEVERLY        CLEAR     41  31  67 SE5       30.17S
LAWRENCE       CLEAR     42  30  62 SE3       30.18S
BEDFORD        CLEAR     41  32  70 CALM      30.15S
BLUE HILL        N/A     40  32  73 S6        30.15R
NORWOOD        MOCLDY    40  33  76 CALM      30.17S
MARSHFIELD     CLEAR     36  32  87 NW3       30.19S
PLYMOUTH       CLEAR     36  34  92 CALM      30.18S
TAUNTON        MOCLDY    37  33  85 CALM      30.18R
NEW BEDFORD    PTCLDY    38  35  89 CALM      30.17R
$$

MAZALL-300900-
CAPE COD AND THE ISLANDS

CITY           SKY/WX    TMP DP  RH WIND       PRES   REMARKS
FALMOUTH       CLOUDY    37  34  87 CALM      30.17S
HYANNIS        PTCLDY    36  31  82 NE3       30.15F
CHATHAM        PTCLDY    37  34  89 CALM      30.19S
PROVINCETOWN   CLEAR     30  27  88 CALM      30.19S
NANTUCKET      PTCLDY    42  33  70 NE8       30.16F
MARTHAS VNYRD  PTCLDY    40  33  76 E5        30.16S
$$

MAZALL-300900-
CENTRAL AND WESTERN MASSACHUSETTS

CITY           SKY/WX    TMP DP  RH WIND       PRES   REMARKS
WORCESTER      CLOUDY    40  30  67 SW8       30.13F
FITCHBURG      CLOUDY    43  33  68 CALM      30.15S
ORANGE         CLOUDY    46  31  55 SE3       30.13F
SPRINGFIELD    CLOUDY    46  36  68 S8        30.13F
WESTFIELD      CLOUDY    45  36  70 S6        30.13F
NORTH ADAMS    CLOUDY    47  37  68 W5        30.12F
PITTSFIELD     CLOUDY    42  36  79 CALM      30.10F
$$

RIZALL-300900-
RHODE ISLAND

CITY           SKY/WX    TMP DP  RH WIND       PRES   REMARKS
PROVIDENCE     CLOUDY    44  35  70 W6        30.18R
NEWPORT        CLOUDY    41  35  79 CALM      30.18R
BLOCK ISLAND   CLOUDY    42  37  82 W3        30.18S
SMITHFIELD       N/A     41  34  75 CALM      30.16R
WESTERLY       CLOUDY    44  37  76 SW3       30.18S
$$

CTZALL-300900-
CONNECTICUT

CITY           SKY/WX    TMP DP  RH WIND       PRES   REMARKS
BRADLEY INTL   CLOUDY    45  38  76 S7        30.14F
HARTFORD       CLOUDY    47  37  68 CALM      30.17F
BRIDGEPORT     CLOUDY    45  40  82 NE8       30.16S
DANBURY        CLOUDY    44  40  85 CALM      30.15F
GROTON         CLOUDY    44  42  93 W3        30.18S
NEW HAVEN      CLOUDY    44  41  89 NE6       30.17F
CHESTER        CLOUDY    43  39  87 CALM      30.15F
MERIDEN        CLOUDY    43  40  89 CALM      30.17F
WILLIMANTIC    CLOUDY    46  34  62 CALM      30.17S
OXFORD           N/A     41  37  87 SE3       30.16F
$$

MEZ002-015-021-024-NHZ003-005-008-011-012-014-VTZ005-008-300900-
NORTHERN NEW ENGLAND

CITY           SKY/WX    TMP DP  RH WIND       PRES   REMARKS
PORTLAND ME    CLEAR     34  31  88 CALM      30.18F
BANGOR ME      CLOUDY    32  28  85 CALM      30.20S
CONCORD NH     CLEAR     35  30  82 E5        30.15S WCI  31
MANCHESTER NH  PTCLDY    41  31  67 E3        30.14S
NASHUA NH      MOCLDY    39  33  79 CALM      30.15F
PORTSMOUTH NH  CLEAR     40  35  82 CALM      30.16R
JAFFREY NH     CLOUDY    44  32  62 SW3       30.13S
KEENE NH         N/A    N/A N/A N/A MISG        N/A
BURLINGTON VT  FAIR      39  19  44 N5        30.16F
MT. WASHINGTON MOCLDY    27  16  63 W16         N/A  WCI  14
$$

NYZ052-076-300900-
EASTERN NEW YORK

CITY           SKY/WX    TMP DP  RH WIND       PRES   REMARKS
ALBANY         CLOUDY    46  38  73 S3        30.14F
NEW YORK CITY  CLOUDY    48  39  71 NE10      30.16R
$$

ANZALL-300900-
MARINE OBSERVATIONS

STATION/POSITION TIME  TEMP    WIND        PRES    VSBY  WAVE
                       AIR SEA DIR/SP/G                  HT/PER
                 (UTC) (F)     (DEG/KT/KT) (MB)    (MI)  (FT/S)
BOSTON BUOY      0750   45 46  140/  6/  6 1021.2R         2/ 5
BUZZARDS BAY     0700   45      70/  9/ 10 1021.8F
NANTUCKET SOUND  0750   45 49   60/  8/ 10 1021.3F         1/ 5
MASS BAY-STELLWA 0704   44 45                N/A    1 7/8  3/ 5
ISLE OF SHOALS   0700   44     150/ 10/ 11 1021.2F
S OF BLOCK IS    NOT AVBL
$$

......................KEY.........................
  SKY/WX - SKY CONDITION/PRESENT WEATHER
  TMP    - TEMPERATURE IN FAHRENHEIT
  DWPT   - DEWPOINT IN FAHRENHEIT
  RH     - RELATIVE HUMIDITY IN PERCENT
  WIND   - DIRECTION AND SPEED IN MPH
  PRES   - MEAN SEA LEVEL PRESSURE IN INCHES OF HG
  WCI    - WIND CHILL INDEX
  VSB    - VISIBILITY IN MILES
  HX     - HEAT INDEX
  TC     - TEMPERATURE IN CELSIUS
  VRB    - VARIABLE WIND DIRECTION
  N/A    - NOT AVAILABLE



USA.gov is the U.S. government's official web portal to all federal, state and local government web resources and services.